[[{"header":{"parameterUnit":"m.s-1","parameterCategory":1,"la1":30.2991,"la2":30.254,"lo1":-89.0895,"lo2":-89.0444,"dx":0.0017,"dy":0.0017,"nx":28,"ny":28,"refTime":"2022-12-13T09:00:00:Z","depth":0,"parameterNumber":2,"parameterNumberName":"U-component_of_WINDS"},"data":[0,0,0,0,0,0,0,0,0,0,0,0,0,0,0,0,0,0,0,0,0,0,0,0,0,0,0,0,0,0,0,0,0,0,0,0,0,0,0,0,0,0,0,0,0,0,0,0,0,0,0,0,0,0,0,0,0,0,-0.1142,-0.1142,0,-0.119,-0.119,-0.1191,-0.1218,-0.1219,-0.1219,-0.1219,-0.1269,-0.127,-0.1271,0,0,0,0,0,0,0,0,0,0,0,0,0,-0.1075,-0.1076,-0.1142,-0.1142,-0.1143,-0.119,-0.119,-0.1191,-0.1218,-0.1219,-0.1219,-0.1219,-0.1268,-0.127,-0.1271,0,0,0,0,0,0,0,0,0,0,0,0,0,-0.1111,-0.1076,-0.1142,-0.1162,-0.1165,-0.1189,-0.119,-0.1191,-0.1218,-0.1219,-0.1219,-0.1219,-0.1268,-0.127,-0.1272,-0.128,0,0,-0.1277,-0.1278,0,0,0,0,0,0,0,0,-0.1109,-0.1114,-0.1159,-0.1161,-0.1163,-0.1198,-0.1185,-0.1221,-0.1218,-0.1198,-0.1219,-0.1219,-0.1245,-0.1249,-0.1258,-0.1282,-0.1285,-0.1277,-0.1279,-0.1279,-0.128,0,0,0,0,0,0,0,-0.1107,-0.1112,-0.1161,-0.1159,-0.1162,-0.1169,-0.1175,-0.1192,-0.122,-0.12,-0.1202,-0.1207,-0.1247,-0.1256,-0.1259,-0.1285,-0.1277,-0.1279,-0.128,-0.1281,-0.1319,-0.1319,0,0,0,0,0,0,-0.1101,-0.111,-0.1159,-0.1162,-0.1136,-0.117,-0.1176,-0.1187,-0.122,-0.1225,-0.1207,-0.1208,-0.1253,-0.1257,-0.1261,-0.1273,-0.1279,-0.1281,-0.1282,-0.1319,-0.1319,-0.1319,0,0,0,0,0,0,-0.1099,-0.1105,-0.1157,-0.1137,-0.1144,-0.1171,-0.1183,-0.1188,-0.1197,-0.1226,-0.1231,-0.1211,-0.1253,-0.1258,-0.1275,-0.1275,-0.1282,-0.1284,-0.1319,-0.1319,-0.1319,-0.1297,0,0,0,0,0,0,-0.1097,-0.1104,-0.1108,-0.1136,-0.1145,-0.117,-0.1183,-0.1189,-0.12,-0.1202,-0.1231,-0.1236,-0.1253,-0.1272,-0.1277,-0.1278,-0.1285,-0.132,-0.1319,-0.1319,-0.1298,-0.1296,-0.1295,0,0,0,0,0,-0.1095,-0.11,-0.1108,-0.1113,-0.1149,-0.117,-0.1175,-0.1195,-0.12,-0.1204,-0.1222,-0.1235,-0.1274,-0.1274,-0.1279,-0.1281,-0.132,-0.1319,-0.1319,-0.1299,-0.1297,-0.1295,0,0,0,0,0,0,-0.1071,-0.1104,-0.1113,-0.1127,-0.1146,-0.1175,-0.118,-0.1192,-0.121,-0.1211,-0.1235,-0.1242,-0.1256,-0.127,-0.1269,-0.1291,-0.1298,-0.1299,-0.1281,-0.1279,-0.1277,-0.1274,-0.1287,0,0,0,0,0,-0.1067,-0.1081,-0.1109,-0.1119,-0.1128,-0.1152,-0.1162,-0.1176,-0.1196,-0.1204,-0.1223,-0.1243,-0.1259,-0.127,-0.1287,-0.13,-0.1307,-0.1304,-0.1302,-0.1301,-0.1301,-0.1309,-0.1308,-0.1318,-0.1318,-0.1318,0,0,-0.106,-0.108,-0.1087,-0.1115,-0.1131,-0.1145,-0.1159,-0.1173,-0.1184,-0.1206,-0.1223,-0.1238,-0.1261,-0.1276,-0.1283,-0.1288,-0.13,-0.13,-0.1299,-0.13,-0.1309,-0.1308,-0.1307,-0.1318,-0.1318,-0.1318,0,0,-0.1054,-0.107,-0.108,-0.1095,-0.1119,-0.1135,-0.1137,-0.1164,-0.1175,-0.1192,-0.1209,-0.1223,-0.1251,-0.1267,-0.1278,-0.1277,-0.129,-0.1282,-0.1274,-0.1281,-0.1281,-0.128,-0.128,-0.1279,-0.1283,-0.1283,-0.1283,0,-0.1042,-0.1063,-0.1084,-0.1097,-0.1108,-0.1129,-0.1139,-0.1154,-0.1182,-0.1189,-0.1194,-0.123,-0.1247,-0.1266,-0.1265,-0.1274,-0.1278,-0.1279,-0.1279,-0.1279,-0.1278,-0.1278,-0.1278,-0.1282,-0.1282,-0.1282,-0.1282,0,-0.1047,-0.1062,-0.1067,-0.1093,-0.1105,-0.1117,-0.1139,-0.115,-0.1162,-0.1178,-0.1195,-0.1216,-0.1238,-0.1243,-0.1256,-0.1263,-0.1266,-0.1274,-0.1283,-0.1276,-0.1276,-0.1276,-0.128,-0.128,-0.1281,-0.1281,0,0,-0.1028,-0.1064,-0.1066,-0.1078,-0.1105,-0.1117,-0.1129,-0.115,-0.1158,-0.1177,-0.1188,-0.1211,-0.1219,-0.1233,-0.1247,-0.1253,-0.1251,-0.1262,-0.1262,-0.1259,-0.1261,-0.1254,-0.1254,-0.126,-0.126,-0.126,-0.1259,0,-0.1025,-0.1048,-0.1067,-0.1083,-0.1097,-0.1117,-0.1128,-0.1146,-0.116,-0.1174,-0.1191,-0.1207,-0.1217,-0.1225,-0.1232,-0.125,-0.1252,-0.125,-0.1271,-0.1271,-0.1264,-0.1254,-0.1247,-0.1246,-0.126,-0.126,-0.126,0,-0.1026,-0.1043,-0.106,-0.1086,-0.1092,-0.1102,-0.1122,-0.1135,-0.1156,-0.1166,-0.1181,-0.1196,-0.121,-0.1217,-0.1237,-0.1235,-0.1245,-0.1255,-0.1255,-0.1258,-0.1265,-0.1257,-0.1246,-0.1245,-0.126,-0.126,-0.126,0,-0.101,-0.1037,-0.1051,-0.1061,-0.1091,-0.1097,-0.111,-0.1131,-0.1142,-0.116,-0.1167,-0.1186,-0.1197,-0.1212,-0.1232,-0.1235,-0.125,-0.1258,-0.1259,-0.1258,-0.1261,-0.1261,-0.1252,-0.1267,-0.1267,-0.1267,-0.1267,0,-0.1006,-0.1015,-0.1044,-0.1053,-0.1065,-0.1086,-0.1097,-0.1112,-0.113,-0.1142,-0.116,-0.1171,-0.1197,-0.1211,-0.1226,-0.124,-0.1245,-0.1254,-0.1258,-0.1253,-0.1251,-0.1259,-0.126,-0.1267,-0.1267,-0.1267,-0.1267,0,-0.099,-0.1009,-0.1026,-0.1053,-0.106,-0.1067,-0.109,-0.1099,-0.1115,-0.113,-0.1135,-0.1159,-0.1177,-0.1198,-0.1222,-0.1233,-0.1246,-0.1252,-0.1238,-0.1241,-0.124,-0.124,-0.1236,-0.1236,-0.1251,-0.1251,-0.1251,0,-0.0986,-0.0994,-0.1021,-0.103,-0.1042,-0.1056,-0.1068,-0.1089,-0.11,-0.1124,-0.113,-0.1149,-0.1165,-0.1192,-0.1212,-0.1231,-0.1238,-0.1235,-0.1241,-0.1235,-0.1238,-0.1237,-0.1238,-0.1233,-0.1233,-0.1233,-0.1233,0,-0.0977,-0.0986,-0.1001,-0.1019,-0.1032,-0.1047,-0.1064,-0.107,-0.1095,-0.1107,-0.1124,-0.1137,-0.1161,-0.118,-0.1201,-0.1215,-0.1228,-0.1231,-0.1232,-0.1226,-0.1218,-0.1223,-0.1234,-0.1231,-0.1231,-0.1231,-0.1231,-0.1231,-0.0967,-0.0974,-0.0995,-0.1011,-0.1025,-0.104,-0.105,-0.1066,-0.1081,-0.1103,-0.1115,-0.1132,-0.1152,-0.1182,-0.1195,-0.1209,-0.1214,-0.1216,-0.1216,-0.1216,-0.1215,-0.1216,-0.1213,-0.1213,-0.1214,-0.1214,-0.1214,0,-0.0958,-0.0972,-0.0987,-0.1009,-0.1021,-0.1032,-0.1051,-0.1061,-0.1076,-0.1094,-0.1109,-0.1129,-0.1147,-0.1168,-0.1188,-0.1195,-0.1201,-0.1199,-0.1199,-0.1202,-0.1209,-0.1206,-0.1193,-0.1193,-0.1193,-0.1193,-0.1193,-0.1193,-0.0956,-0.0969,-0.0981,-0.1002,-0.1016,-0.1032,-0.1042,-0.1056,-0.107,-0.1092,-0.1106,-0.112,-0.1139,-0.116,-0.1177,-0.1183,-0.1189,-0.1185,-0.1193,-0.1199,-0.1201,-0.1203,-0.12,-0.1186,-0.1186,-0.1184,-0.1184,-0.1184]},{"header":{"parameterUnit":"m.s-1","parameterCategory":1,"la1":30.2991,"la2":30.254,"lo1":-89.0895,"lo2":-89.0444,"dx":0.0017,"dy":0.0017,"nx":28,"ny":28,"refTime":"2022-12-13T09:00:00:Z","depth":0,"parameterNumber":3,"parameterNumberName":"V-component_of_WINDS"},"data":[0,0,0,0,0,0,0,0,0,0,0,0,0,0,0,0,0,0,0,0,0,0,0,0,0,0,0,0,0,0,0,0,0,0,0,0,0,0,0,0,0,0,0,0,0,0,0,0,0,0,0,0,0,0,0,0,0,0,6.5072,6.5071,0,6.5046,6.5046,6.5045,6.5005,6.5004,6.5003,6.5003,6.4979,6.4979,6.4979,0,0,0,0,0,0,0,0,0,0,0,0,0,6.5091,6.5091,6.5072,6.5071,6.5071,6.5046,6.5046,6.5045,6.5005,6.5004,6.5003,6.5002,6.4979,6.4979,6.4979,0,0,0,0,0,0,0,0,0,0,0,0,0,6.5076,6.5091,6.5072,6.5048,6.5045,6.5046,6.5046,6.5045,6.5005,6.5004,6.5003,6.5002,6.4979,6.4979,6.4979,6.5002,0,0,6.498,6.498,0,0,0,0,0,0,0,0,6.5077,6.5075,6.5052,6.505,6.5047,6.5027,6.5044,6.5031,6.5005,6.5021,6.5003,6.5001,6.4996,6.4995,6.4993,6.5001,6.5,6.498,6.498,6.498,6.498,0,0,0,0,0,0,0,6.5078,6.5076,6.5062,6.5051,6.5048,6.504,6.5037,6.5041,6.5015,6.5019,6.5016,6.5014,6.4995,6.4993,6.4992,6.5,6.498,6.498,6.498,6.498,6.5031,6.5032,0,0,0,0,0,0,6.5082,6.5077,6.5062,6.5061,6.5059,6.5041,6.5037,6.5035,6.5015,6.5011,6.5015,6.5012,6.4993,6.4992,6.4991,6.502,6.498,6.498,6.498,6.503,6.5031,6.5033,0,0,0,0,0,0,6.5083,6.5081,6.5063,6.5068,6.5065,6.5042,6.504,6.5035,6.5033,6.5011,6.5007,6.5017,6.4992,6.4991,6.5001,6.5018,6.498,6.498,6.5028,6.503,6.5032,6.5075,0,0,0,0,0,0,6.5083,6.5081,6.5088,6.5069,6.5065,6.5072,6.5041,6.5035,6.5033,6.5029,6.5012,6.5009,6.4991,6.5001,6.5001,6.5018,6.498,6.5027,6.5029,6.5031,6.5072,6.5078,6.5084,0,0,0,0,0,6.5084,6.5101,6.5089,6.5087,6.5073,6.5073,6.5071,6.505,6.5034,6.5042,6.5029,6.5009,6.5016,6.5002,6.5002,6.5019,6.5025,6.5028,6.5031,6.5069,6.5077,6.5083,0,0,0,0,0,0,6.5123,6.5098,6.5084,6.5095,6.5086,6.5066,6.5075,6.5058,6.5054,6.5051,6.5026,6.5023,6.5037,6.5029,6.5014,6.5043,6.5018,6.5021,6.5047,6.5054,6.506,6.5062,6.498,0,0,0,0,0,6.5133,6.5134,6.5112,6.5124,6.512,6.5099,6.5098,6.5083,6.5073,6.507,6.5057,6.505,6.5051,6.5052,6.5051,6.5071,6.5069,6.5083,6.5089,6.5093,6.5097,6.5111,6.5118,6.5042,6.5042,6.5042,0,0,6.5153,6.514,6.5141,6.5131,6.5123,6.5127,6.5096,6.51,6.5103,6.507,6.5079,6.5071,6.5061,6.5077,6.5084,6.5071,6.5117,6.5097,6.5101,6.5102,6.5115,6.5122,6.5128,6.5044,6.5044,6.5044,0,0,6.5192,6.5181,6.5191,6.5184,6.5172,6.5158,6.5161,6.5144,6.5137,6.5146,6.5123,6.5127,6.5128,6.5124,6.5122,6.5164,6.5147,6.5165,6.5195,6.5209,6.5215,6.522,6.5239,6.5245,6.5168,6.5168,6.5168,0,6.5219,6.5222,6.5199,6.5205,6.5203,6.5174,6.5186,6.5181,6.517,6.517,6.5156,6.516,6.5151,6.5167,6.5178,6.5176,6.5181,6.5166,6.5216,6.5221,6.5225,6.5243,6.5249,6.517,6.517,6.517,6.517,0,6.5258,6.526,6.527,6.5261,6.526,6.5269,6.525,6.5252,6.5238,6.5227,6.5238,6.5228,6.5226,6.5229,6.5214,6.5245,6.5238,6.522,6.5195,6.5235,6.5251,6.5258,6.5174,6.5173,6.5172,6.5172,0,0,6.5319,6.5299,6.5303,6.53,6.5287,6.5289,6.5299,6.5298,6.5302,6.5296,6.5306,6.5309,6.5294,6.5292,6.5277,6.5289,6.5328,6.5271,6.527,6.5284,6.5365,6.538,6.5388,6.5317,6.5318,6.5319,6.5367,0,6.5357,6.5371,6.5352,6.5371,6.5376,6.535,6.536,6.5354,6.5345,6.5349,6.5339,6.5343,6.5321,6.532,6.5331,6.5321,6.5345,6.5317,6.5328,6.5329,6.5333,6.5396,6.541,6.5456,6.5373,6.5374,6.5375,0,6.5402,6.54,6.542,6.5409,6.541,6.5418,6.5418,6.5421,6.5416,6.5408,6.5408,6.5391,6.5403,6.5379,6.5397,6.5379,6.5383,6.5379,6.5381,6.5382,6.5355,6.5401,6.547,6.5478,6.5384,6.5383,6.5382,0,6.5449,6.545,6.5463,6.5461,6.5448,6.5455,6.545,6.5444,6.5445,6.5446,6.5447,6.5449,6.545,6.5453,6.5439,6.5422,6.5461,6.5434,6.5458,6.5458,6.5467,6.5467,6.554,6.5467,6.5467,6.5467,6.5466,0,6.5494,6.5508,6.5485,6.5493,6.5509,6.5489,6.5506,6.5499,6.5494,6.5502,6.548,6.5489,6.5469,6.5477,6.5466,6.5485,6.5485,6.5482,6.5479,6.5485,6.5486,6.5488,6.5485,6.5468,6.5468,6.5468,6.5467,0,6.5548,6.5533,6.5546,6.5533,6.5531,6.5544,6.5534,6.5543,6.5533,6.5544,6.5546,6.5531,6.554,6.5526,6.5532,6.5525,6.5553,6.5544,6.5554,6.5553,6.5578,6.5577,6.5656,6.5667,6.5585,6.5586,6.5586,0,6.5579,6.5589,6.5579,6.5583,6.5579,6.5585,6.5588,6.5569,6.5573,6.557,6.558,6.5587,6.5591,6.5607,6.5598,6.5604,6.5597,6.5625,6.5598,6.5605,6.5601,6.5601,6.5604,6.563,6.5631,6.5632,6.5633,0,6.5637,6.5629,6.5632,6.5635,6.5638,6.5639,6.5638,6.5643,6.5624,6.563,6.5638,6.5642,6.565,6.5658,6.5663,6.566,6.5645,6.5641,6.5648,6.5654,6.5661,6.5661,6.5572,6.564,6.5639,6.5639,6.5638,6.5638,6.5682,6.5691,6.5686,6.5692,6.569,6.5691,6.5699,6.5692,6.5698,6.5702,6.5692,6.5704,6.5703,6.5707,6.5707,6.5718,6.5706,6.5715,6.5717,6.572,6.5726,6.5658,6.5719,6.5719,6.5718,6.5718,6.5718,0,6.574,6.5737,6.5742,6.5742,6.5748,6.5732,6.5732,6.5738,6.5749,6.5748,6.5754,6.5766,6.5775,6.5768,6.5776,6.5787,6.5781,6.579,6.579,6.5791,6.5734,6.5729,6.5795,6.5795,6.5795,6.5795,6.5795,6.5795,6.5772,6.5788,6.5781,6.5798,6.5794,6.5805,6.5807,6.5809,6.5809,6.5823,6.5831,6.5826,6.5824,6.5833,6.5842,6.584,6.5845,6.5858,6.5854,6.5802,6.5794,6.5787,6.5782,6.5859,6.5859,6.591,6.5911,6.5911]}]]